Regional Weather Roundup
Issued by NWS State College, PA

Home | Current Version | Previous Version | Text Only | Print | Product List | Glossary On
Versions: 1 2 3 4 5 6 7 8 9 10 11 12 13 14 15 16 17 18 19 20 21 22 23 24 25 26 27 28 29 30 31 32 33 34 35 36 37 38 39 40 41 42 43 44 45 46 47 48 49 50
000
ASUS41 KCTP 281303
RWRCTP

REGIONAL WEATHER ROUNDUP
NATIONAL WEATHER SERVICE STATE COLLEGE PA
900 AM EDT THU APR 28 2016

Note: "fair" indicates few or no clouds below 12,000 feet with no
significant weather and/or obstructions to visibility.

* = STATION THAT DOES NOT REPORT PRECIPITATION /E.G. RAIN...SNOW...ETC/
    THUNDER OR FOG.

PAZ002>004-007>009-013>016-020>023-029>032-281400-
WESTERN PENNSYLVANIA

CITY           SKY/WX    TMP DP  RH WIND       PRES   REMARKS
ERIE           CLOUDY    46  29  51 NE8       29.98S
MEADVILLE      CLOUDY    46  24  42 E8        29.92F
FRANKLIN*      CLOUDY    46  25  42 E14       29.94F
NEW CASTLE     CLOUDY    51  32  48 E8        29.91S
BEAVER COUNTY  CLOUDY    50  36  57 CALM      29.89S
BUTLER*        CLOUDY    48  36  61 NE10      29.92S
PITTSBURGH INT LGT RAIN  52  40  63 NE5       29.88R
PITTSBURGH     LGT RAIN  51  44  77 VRB5      29.87R
INDIANA*       CLOUDY    50  43  76 E13       29.95S
LATROBE        PTSUNNY   55  54  94 E6        29.88S
WASHINGTON CO* CLOUDY    48  45  87 N3        29.87S
$$

PAZ004>006-010>012-017>019-024>028-033>037-041-042-045-046-049>053-281400-
CENTRAL PENNSYLVANIA

CITY           SKY/WX    TMP DP  RH WIND       PRES   REMARKS
BRADFORD       CLOUDY    41  17  38 E10       29.99R
DUBOIS         CLOUDY    45  24  43 E13       29.95F
CLEARFIELD     CLOUDY    46  22  38 E13       30.00S
JOHNSTOWN      LGT RAIN  46  42  86 E7        29.92S FOG
ALTOONA        LGT RAIN  47  40  76 NE5       29.97F
STATE COLLEGE  CLOUDY    46  25  42 NE12      30.02S
WILLIAMSPORT   PTSUNNY   49  18  29 E5        30.04S
SELINSGROVE    PTSUNNY   50  24  36 NE9       30.04S
FT INDIANTOWN  CLOUDY    51  20  29 E9        30.03R
CAPITAL CITY   CLOUDY    52  31  44 E7        30.03R
HARRISBURG     CLOUDY    52  32  46 E8        30.02R
YORK           CLOUDY    52  46  80 E6        30.01S HAZE
$$

PAZ038>040-043-044-047-048-054-055-060>062-067>071-281400-
EASTERN PENNSYLVANIA

CITY           SKY/WX    TMP DP  RH WIND       PRES   REMARKS
SCRANTON       MOSUNNY   47  21  35 NE8       30.05S
MOUNT POCONO   MOSUNNY   44  16  32 NE7       30.02R
ALLENTOWN      CLOUDY    51  26  37 E9        30.04R
QUAKERTOWN*    CLOUDY    48  25  40 NE3       30.05R
READING        CLOUDY    51  23  33 E9        30.03R
LANCASTER      CLOUDY    50  40  68 E8        30.03R
COATESVILLE    CLOUDY    50  30  46 NE3G14    30.04R
POTTSTOWN      PTSUNNY   50  32  50 NE6       30.06R
BLUE BELL      CLOUDY    50  32  50 NE5       30.04R
DOYLESTOWN     CLOUDY    49  28  44 NE8       30.04R
WILLOW GROVE   NOT AVBL
NORTH PHILA    MOSUNNY   54  39  57 E12       30.05R
PHILADELPHIA   CLOUDY    54  39  57 NE10      30.04R
$$




USA.gov is the U.S. government's official web portal to all federal, state and local government web resources and services.